Location: Blue Sky Observatory
(43.1153°N, 70.9036°W)
Time: 20:50:56
(UTC-05:00)

Daily predictions for brighter satellites

Satellite Brightness Start Highest point End
(mag) Time Altitude Azimuth Time Altitude Azimuth Time Altitude Azimuth
Cosmos 1725 Rocket 4.0 16:38:18 10° S 16:44:33 74° E 16:50:48 10° NNE
Meteor 2-10 Rocket 3.9 16:40:48 10° SSW 16:46:01 73° WNW 16:51:29 10° N
Cosmos 1763 Rocket 3.6 16:43:15 10° NNW 16:48:23 54° ENE 16:53:24 10° SE
Cosmos 2082 Rocket 3.1 16:44:47 10° N 16:49:33 26° NE 16:54:15 10° ESE
CSL-04 Rocket 3.6 16:44:33 10° SSE 16:49:48 69° ENE 16:55:08 10° N
CZ-2C R/B 3.2 16:46:35 10° S 16:51:30 60° W 16:56:35 10° NNW
SJ-7 4.5 16:47:40 10° SSE 16:51:46 59° ENE 16:55:49 10° N
SJ-12 4.4 16:54:01 10° S 16:58:08 68° W 17:02:18 10° NNW
Meteor 2-12 Rocket 4.4 16:53:55 10° S 17:00:01 84° E 17:06:07 10° N
COSMO-SKYMED 1 3.8 16:56:42 10° NE 17:00:04 22° E 17:03:24 10° SE
Cosmos 1340 3.3 16:56:27 10° SSW 17:00:09 58° WNW 17:03:55 10° N
USA 116 4.5 16:56:02 10° NNE 17:00:11 36° E 17:03:52 10° SSE
YAOGAN 1 3.1 16:57:35 10° SE 17:01:32 36° ENE 17:05:30 10° N
Tsikada Rocket 4.1 16:56:34 10° N 17:02:46 87° W 17:08:55 10° S
Cosmos 1814 Rocket 4.0 16:57:40 10° NNW 17:03:03 81° ENE 17:08:24 10° SSE
Cosmos 1782 3.9 17:00:50 10° SE 17:04:09 25° E 17:07:29 10° NNE
BREEZE-M DEB (TANK) 3.0 17:04:47 10° NW 17:06:36 23° NNE 17:08:36 14° ENE
Cosmos 2346 Rocket 4.4 17:00:55 10° N 17:07:04 74° E 17:13:15 10° SSE
SL-27 R/B 2.8 17:08:48 10° N 17:11:57 38° ENE 17:15:06 10° SE
ERS-2 2.8 17:08:46 10° SE 17:12:06 33° ENE 17:15:26 10° N
Cosmos 405 Rocket 4.4 17:10:22 10° ESE 17:12:29 15° E 17:12:32 15° E
Cosmos 44 Rocket 4.3 17:08:52 10° NNW 17:12:56 25° NE 17:16:17 13° E
USA 234 4.1 17:08:13 12° ENE 17:13:34 33° SE 17:19:21 10° S
Cosmos 540 Rocket 4.0 17:10:11 10° N 17:14:59 37° ENE 17:19:44 10° SE
Lacrosse 5 3.7 17:12:41 10° WNW 17:16:29 21° NNW 17:20:18 10° NNE
Cosmos 2221 Rocket 4.4 17:13:49 10° SSE 17:17:35 28° E 17:21:22 10° NNE
Ariane Rocket 3.2 17:12:43 10° S 17:17:48 76° WSW 17:22:55 10° NNW
Cosmos 1844 Rocket 3.9 17:12:41 10° SW 17:17:59 41° WNW 17:23:17 10° NNE
CZ-2C R/B 3.6 17:16:18 10° NNE 17:20:46 65° ESE 17:25:16 10° S
Cosmos 304 Rocket 3.9 17:16:01 10° NNW 17:20:50 80° WSW 17:25:37 10° SSE
MTI 4.3 17:18:36 12° NNE 17:21:18 37° E 17:24:18 10° SSE
Cosmos 1703 Rocket 3.7 17:18:24 10° S 17:22:44 52° E 17:27:05 10° NNE
Cosmos 841 Rocket 3.5 17:18:37 10° NNW 17:23:56 83° ENE 17:29:12 10° SSE
Cosmos 1486 Rocket 4.0 17:29:26 10° SSW 17:34:39 88° WNW 17:39:57 10° NNE
Okean 2 Rocket 3.6 17:31:25 10° N 17:35:38 37° ENE 17:39:50 10° SE
FENGYUN 3A 3.9 17:30:54 10° SE 17:35:58 43° ENE 17:41:03 10° N
MONITOR-E 4.3 17:33:38 10° SSE 17:36:34 45° ENE 17:39:31 10° N
Cosmos 1633 2.5 17:34:07 10° N 17:37:47 66° E 17:41:26 10° SSE
Cosmos 1464 Rocket 4.0 17:33:17 10° SSE 17:39:10 53° E 17:45:08 10° NNE
Cosmos 44 3.6 17:37:18 10° NNW 17:41:45 43° NE 17:44:23 23° ESE
BREEZE-M DEB (TANK) 3.8 17:43:35 10° WNW 17:45:47 32° N 17:46:38 27° NNE
Cosmos 1833 Rocket 2.6 17:40:19 10° NNW 17:45:56 67° ENE 17:51:32 10° SSE
Cosmos 1908 Rocket 4.1 17:42:50 10° NNW 17:47:07 61° W 17:51:23 10° S
SKYMED 2 3.5 17:43:59 10° NNE 17:48:20 71° ESE 17:52:39 10° S
Cosmos 2297 3.7 17:44:38 10° S 17:50:14 61° ESE 17:54:15 20° NE
BREEZE-M DEB (TANK) 2.5 17:48:27 10° NW 17:50:24 44° NNE 17:50:24 44° NNE
Cosmos 1354 Rocket 3.9 17:46:41 10° S 17:51:55 68° ESE 17:55:56 17° NNE
SPOT 3 Rocket 3.4 17:49:05 10° SSE 17:54:17 73° ENE 17:59:30 10° N
ALOS 2.2 17:50:14 10° SSE 17:54:50 63° ENE 17:59:28 10° N
Cosmos 2278 Rocket 2.9 17:49:26 10° SW 17:54:59 54° WNW 18:00:34 10° NNE
CENTAUR R/B 3.9 17:49:22 10° W 17:55:01 33° NW 18:01:24 10° NNE
Meteor 1-11 Rocket 3.9 17:51:22 10° N 17:57:04 48° ENE 18:02:35 10° SSE
BREEZE-M DEB (TANK) 1.9 17:56:49 10° WSW 17:58:53 78° S 17:58:53 78° S
COSMOS 2455 4.2 17:59:03 10° WSW 18:04:29 34° NW 18:09:58 10° NNE
CZ-4 R/B 3.6 18:05:12 10° SSW 18:08:28 26° W 18:11:45 10° NW
NOAA 12 4.1 18:09:27 10° SSE 18:14:47 86° WSW 18:20:08 10° NNW
Cosmos 1441 Rocket 3.6 18:11:05 10° S 18:14:11 50° SSE 18:14:11 50° SSE
Cosmos 1606 3.9 18:11:33 10° SSW 18:15:09 41° WNW 18:18:43 10° N
Okean 1-7 3.6 18:11:23 10° SSW 18:15:42 59° W 18:20:05 10° N
BREEZE-M R/B 3.8 18:16:10 10° WNW 18:19:01 40° SSW 18:20:54 26° SSE
CZ-4C R/B 2.9 18:13:54 10° NNW 18:20:54 60° NE 18:24:02 37° ESE
Cosmos 1513 Rocket 4.5 18:15:28 10° S 18:21:47 83° W 18:28:02 10° N
EO 1 Del DPAF 4.2 18:19:24 19° N 18:21:54 46° WNW 18:25:33 10° SW
Thor Agena Rocket 4.1 18:27:31 41° SSE 18:27:31 41° SSE 18:31:10 10° S
CZ-3A R/B 4.2 18:20:09 10° NW 18:33:18 62° SW 18:38:16 14° SSE
Cosmos 2082 Rocket 2.9 18:28:26 10° NW 18:33:56 52° WSW 18:39:23 10° S
COSMO-SKYMED 1 4.1 18:32:20 10° N 18:36:18 35° WNW 18:40:15 10° SW
Cosmos 405 Rocket 4.2 18:44:40 10° SW 18:47:48 35° W 18:47:48 35° W
FengYun 1-2 T 4.2 18:47:43 27° S 18:50:50 79° WSW 18:56:27 10° NNW
Nadezhda 4 Rocket 4.0 18:45:03 10° N 18:51:10 75° W 18:57:15 10° S
Cosmos 44 Rocket 4.0 18:49:58 10° NW 18:54:42 51° WSW 18:55:05 50° SW
USA 234 3.3 18:55:35 58° NNE 18:56:54 74° NW 19:03:25 10° WSW
Timation 2 Rocket 4.0 18:52:10 10° NNW 18:58:59 84° WSW 19:00:00 66° S
Cosmos 968 Rocket 4.0 18:54:20 10° SSW 18:58:24 55° SW 18:58:24 55° SW
Lacrosse 5 4.1 18:57:47 10° NW 18:59:43 16° NNW 18:59:43 16° NNW
Meteor 1-27 Rocket 4.5 18:56:24 10° SSW 19:02:10 54° WNW 19:06:37 17° N
Cosmos 1092 Rocket 4.1 19:02:03 10° N 19:07:23 67° NNW 19:07:23 67° NNW
CZ-4C R/B 4.1 20:02:49 10° NW 20:09:18 36° WSW 20:09:18 36° WSW
